Winona, MN

2:45 AM CDT on September 18, 2019 (GMT -0500)
Winona Municipal-Conrad

Weather History for KONA - July, 2019

Change the Weather History Date:

Saturday, July 27, 2019

  Actual Average Record
Temperature  
Mean Temperature 78 °F -  
Max Temperature 87 °F 84 °F 93 °F (2006)
Min Temperature 69 °F 61 °F 48 °F (2013)
Cooling Degree Days 13    
Growing Degree Days 28 (Base 50)    
Moisture  
Dew Point 65 °F    
Average Humidity 63    
Maximum Humidity 88    
Minimum Humidity 35    
Precipitation  
Precipitation 0.00 in - - ()
Sea Level Pressure  
Sea Level Pressure 29.99 in    
Wind  
Wind Speed 5 mph (WNW)    
Max Wind Speed 10 mph    
Max Gust Speed -    
Visibility 10 miles    
Events      
Averages and records for this station are not official NWS values.
T = Trace of Precipitation, MM = Missing Value Source: NWS Daily Summary

Daily Weather History Graph

Daily Weather History Graph

Search for Another Location

Airport or City:

Astronomy

Jul. 27, 2019 Rise Set
Actual Time 5:49 AM CDT 8:36 PM CDT
Civil Twilight 5:15 AM CDT 9:10 PM CDT
Nautical Twilight 4:32 AM CDT 9:52 PM CDT
Astronomical Twilight 3:43 AM CDT 10:41 PM CDT
Moon 1:37 AM CDT (7/27) 4:28 PM CDT (7/27)
Length of Visible Light 15h 54m
Length of Day
14h 47m
Waning Crescent, 24% of the Moon is Illuminated
Jul 27
Waning Crescent
Jul 31
New
Aug 7
First Quarter
Aug 15
Full
Aug 23
Last Quarter

Hourly Weather History & Observations

Time (CDT) Temp. Heat Index Dew Point Humidity Pressure Visibility Wind Dir Wind Speed Gust Speed Precip Events Conditions
12:55 AM 77.0 °F - 68.0 °F 74% 29.96 in 10.0 mi WSW 8.1 mph - N/A   Clear
1:55 AM 77.0 °F - 68.0 °F 74% 29.97 in 10.0 mi WSW 4.6 mph - N/A   Clear
2:55 AM 75.2 °F - 68.0 °F 78% 29.98 in 10.0 mi WSW 4.6 mph - N/A   Clear
3:55 AM 75.2 °F - 68.0 °F 78% 29.96 in 10.0 mi Calm Calm - N/A   Clear
4:55 AM 75.2 °F - 68.0 °F 78% 29.97 in 10.0 mi WSW 6.9 mph - N/A   Clear
5:55 AM 69.8 °F - 66.2 °F 88% 29.98 in 10.0 mi Calm Calm - N/A   Clear
6:55 AM 71.6 °F - 68.0 °F 88% 29.99 in 10.0 mi West 4.6 mph - N/A   Clear
7:55 AM 75.2 °F - 68.0 °F 78% 30.00 in 10.0 mi Calm Calm - N/A   Clear
8:55 AM 77.0 °F - 68.0 °F 74% 30.01 in 10.0 mi WNW 3.5 mph - N/A   Clear
9:55 AM 78.8 °F - 68.0 °F 69% 30.01 in 10.0 mi Calm Calm - N/A   Clear
10:55 AM 80.6 °F 83.2 °F 68.0 °F 65% 30.02 in 10.0 mi North 3.5 mph - N/A   Clear
11:55 AM 82.4 °F 84.6 °F 66.2 °F 58% 30.02 in 10.0 mi NNE 5.8 mph - N/A   Clear
12:55 PM 84.2 °F 85.0 °F 62.6 °F 48% 30.01 in 10.0 mi NW 4.6 mph - N/A   Clear
1:55 PM 84.2 °F 85.0 °F 62.6 °F 48% 30.00 in 10.0 mi NW 9.2 mph - N/A   Clear
2:55 PM 86.0 °F 86.6 °F 62.6 °F 45% 29.99 in 10.0 mi NW 9.2 mph - N/A   Clear
3:55 PM 87.8 °F 86.5 °F 57.2 °F 35% 29.99 in 10.0 mi West 8.1 mph - N/A   Clear
4:55 PM 87.8 °F 87.6 °F 60.8 °F 40% 29.99 in 10.0 mi WNW 6.9 mph - N/A   Clear
5:55 PM 84.2 °F 83.8 °F 59.0 °F 42% 29.99 in 10.0 mi NW 10.4 mph - N/A   Clear
6:55 PM 82.4 °F 82.9 °F 60.8 °F 48% 29.99 in 10.0 mi NW 5.8 mph - N/A   Clear
7:55 PM 80.6 °F 81.1 °F 59.0 °F 48% 30.00 in 10.0 mi WNW 3.5 mph - N/A   Clear
8:55 PM 75.2 °F - 62.6 °F 65% 30.00 in 10.0 mi Calm Calm - N/A   Clear
9:55 PM 73.4 °F - 64.4 °F 73% 30.02 in 10.0 mi Calm Calm - N/A   Clear